Hourly Data Report for July 30, 2004

SHERBROOKE A
QUEBEC

45°26'00.000" N
71°41'00.000" W
241.40 m
7028124
71610
YSC

Download Data

Hourly Data (July 2004)
Hourly Data Report for July 30, 2004
TIME
LST
Temp Definition
°C
Dew Point Definition
°C
Rel Hum Definition
%
Precip. Amount Definition
mm

Wind Dir Definition
10's deg

Wind Spd Definition
km/h
Visibility Definition
km
Stn Press Definition
kPa
Hmdx Definition


Wind Chill Definition


Weather Definition


00:00 14.8 14.1 96   10 4 9.7 99.03      
01:00 14.0 13.4 96   10 4 9.7 99.04      
02:00 12.8 12.3 97   11 4 1.0 99.08      
03:00 13.0 12.4 96   9 6 8.0 99.05      
04:00 13.0 12.6 97   9 6 8.0 99.08      
05:00 13.3 12.8 97     0 9.7 99.13      
06:00 14.3 13.7 96   9 6 9.7 99.13      
07:00 16.6 15.4 93     0 24.1 99.16     Mainly Clear
08:00 20.6 17.0 80     0 24.1 99.14 26   Mainly Clear
09:00 23.0 17.6 72   19 6 24.1 99.09 29   Mainly Clear
10:00 25.0 18.6 68   25 4 24.1 99.07 31   Mainly Clear
11:00 26.3 18.5 62   24 11 24.1 99.01 33   Mostly Cloudy
12:00 26.2 18.0 61   21 7 24.1 98.96 32   Mostly Cloudy
13:00 27.2 18.3 58   23 11 24.1 98.97 33   Mostly Cloudy
14:00 26.8 15.6 50   23 15 24.1 98.95 31   Mostly Cloudy
15:00 27.9 16.2 49   23 13 24.1 98.88 33   Mostly Cloudy
16:00 27.0 15.9 51   23 13 24.1 98.87 32   Mostly Cloudy
17:00 27.1 16.2 51   21 11 15.0 98.84 32    
18:00 25.1 17.5 63   16 6 15.0 98.81 31    
19:00 23.3 17.8 71   16 7 15.0 98.81 29    
20:00 20.9 17.3 80   14 9 15.0 98.85 26    
21:00 21.0 17.4 80   11 4 15.0 98.85 27    
22:00 20.7 17.5 82   10 6 15.0 98.82 26    
23:00 19.8 18.0 89     0 12.9 98.81      

Notes on Data Quality.

Legend

  • E = Estimated
  • M = Missing
  • NA = Not Available*
  • [empty] = Indicates an unobserved value
Date modified: